map of SBZ home
SBZ - Airport
Location
City:  Sibiu, Sibiu, Romania
ICAO:LRSB
IATA:SBZ

Details
Type:Airport (Aerodrome, Airfield)
Use:Public/Civil
Latitude:4547'09"N (45.785800)
Longitude:2405'08"E (24.085583)
Elevation:1520 ft (463 m)
Variation:5.72E (WMM2015v2 magnetic declination)
0.13 annual change
Runways:1
Longest:8629 × 148 ft (2630 × 45 m)

Time
Time Zone:UTC+2 (DST+3)
Local Time:

Weather
METAR:LRSB 041400Z 34005KT CAVOK 11/04 Q1024
TAF:LRSB 041100Z 0412/0512 35008KT CAVOK
BECMG 0418/0420 3000 BR BKN010 BKN025
TEMPO 0502/0509 1500 -RA BR BKN005 OVC025
BECMG 0509/0511 5000 BKN015 BKN025

Related Locations
Nearby:
Farthest:CHT: 11424 mi / 18385 km
Waitangi [Tuuta], CIT, NZ

Find:

   beyond  
but within

Other Information
Maps:
NOTAMs:
Links:
Sources:

  
  • flag of Romania
  

Sectional Chart

Flight Planning
at skyvector.com

Satellite Image

Google Maps Satellite view

 

Copyright © 2004-2019 Karl L. Swartz. All rights reserved.
The Great Circle Mapper name and logo are trademarks of the Great Circle Mapper.
All other trademarks mentioned herein belong to their respective owners.
Please see credits for attibutions and further copyright information.

  Follow gcmap on Facebook Follow gcmap on Twitter GCmap on LinkedIn

hCard Microformat

Geo Microformat